Location: La Brionne
(46.1728°N, 1.7849°E)
Time: 22:05:48
(UTC+00:00)

Cosmos 1725 Rocket - Pass Details

Date: 16 June 2021
Orbit: 962 x 990 km, 82.9° (Epoch: 02 August)

Event Time Altitude Azimuth Distance (km) Brightness Sun altitude
Rises 22:14:42 0° 348° (NNW) 3,660 8.6 -16.9°
Reaches altitude 10° 22:17:14 10° 346° (NNW) 2,709 7.6 -17.1°
Maximum altitude 22:23:20 65° 267° (W) 1,058 4.2 -17.5°
Enters shadow 22:27:19 23° 191° (SSW) 1,941 5.1 -17.7°
